Das Wetter in  D-61279 Heinzenberg / Taunus





Wetter Minimum- & Maximum-Werte im September 2011

Standort: Heinzenberg / Taunus - Höhe 297 m         8 24' 1" Ost 50 21' 51" Nord
(   3-stündige Aktualisierung    letzte Aktualisierung um 19:04 am 30.09.2011  )


Messgrösse

Minimum

Maximum

Durchschnitt

Temperatur West /
Luftfeuchte West
Anklicken für Monats-Diagramm

4,7 C

06:59
16.09.2011

37 %

17:21
30.09.2011

30,2 C

17:17
03.09.2011

99 %

07:23
10.09.2011

Temp

15,4 C

Feuchte

80 %

Temperatur Ost /
Luftfeuchte Ost
Anklicken für Monats-Diagramm

5,4 C

07:32
24.09.2011

--

--
--

29,6 C

17:02
03.09.2011

--

--
--

15,7 C

--

Luftdruck Anklicken für Monats-Diagramm

1004,2 hPa

06:36
18.09.2011

1031,3 hPa

05:55
28.09.2011

1017,5 hPa

Taupunkt

3,8 C

06:59
16.09.2011

20,2 C

12:53
04.09.2011

11,6 C

Windchill
( gefühlte Temperatur )

2,2 C

14:31
18.09.2011

30,0 C

18:22
03.09.2011

13,8 C

Windgeschwindigkeit /
Windrichtung
Anklicken für Monats-Diagramm

---

53,5 km/h / W-SW

12:24
06.09.2011

8,5 km/h
W-SW

Helligkeit /
Sonnenschein
Anklicken für Monats-Diagramm
Anklicken für Monats-Diagramm

Sonnenschein:

168:56 Stunden

Max: 10:43 Std am
03.09.2011

93 klux

12:23
05.09.2011

28,5 klux

Solarstrahlung Anklicken für Monats-Diagramm

---

637 W/m

12:23
05.09.2011

209 W/m

Regenmenge
    September 2011
Anklicken für Monats-Diagramm

Insgesamt 36,5 l/m

in 27:25 Stunden
an 14 Tagen

23,3 l/m

15:34
11.09.2011

Gesamtmenge

36,5 l/m

Regen-Tage
    September 2011
Anklicken für Monats-Diagramm

>   0 mm/Tag

>   2 mm/Tag

>   5 mm/Tag

> 10 mm/Tag

> 20 mm/Tag

14 Tage     
4 Tage     
  1 Tag     
  1 Tag     
  1 Tag     

Eisige Tage September 2011 / 2010

Tmin ≤ -10C     

0 Tage

/

0 Tage

Eistage September 2011 / 2010

Tmax <     0C     

0 Tage

/

0 Tage

Frosttage September 2011 / 2010

Tmin ≤     0C     

0 Tage

/

0 Tage

Kalte Tage September 2011 / 2010

Tmax <   10C     

0 Tage

/

0 Tage

Warme Tage September 2011 / 2010

Tmax ≥   20C     

21 Tage

/

8 Tage

Sommertage September 2011 / 2010

Tmax ≥   25C     

7 Tage

/

0 Tage

Heisse Tage September 2011 / 2010

Tmax ≥   30C     

  1 Tag

/

0 Tage


Monatsdiagramm September 2011

Die Kurven zeigen den Durchschnittswert des jeweiligen Tages an


Wetter-Monatsübersicht September 2011
Datum
  Temperatur
   Luftdruck
   Wind
  Regen
   Luftfeuchte
   Helligkeit

Sonnen-
schein


Temp.

Min.
Temp.

Max.
Temp.


Luftdruck

Min.
Luftdruck

Max.
Luftdruck

-Geschw.
Haupt-Richtg.

Max.
Wind

Menge /
Dauer


Feuchte

Min.
Feuchte

Max.
Feuchte


Helligkeit

Max.
Helligkeit

1.
September
14,5 C6,6 C
06:50
24,7 C
17:30
1015,1 hPa1013,1 hPa
17:30
1017,0 hPa
09:15
2,8 km/h
W-NW
13,1 km/h
15:20  
---
75 %43 %
17:35
96 %
09:25
40,2 klux78,5 klux
13:15
10:41 Std 
2.
September
15,8 C8,9 C
05:06
27,3 C
18:36
1014,2 hPa1011,7 hPa
18:36
1015,9 hPa
07:11
1,9 km/h
SO
14,3 km/h
18:51  
---
30 Minuten
83 %53 %
18:56
95 %
07:46
25,7 klux89,8 klux
14:26
5:15 Std 
3.
September
20,2 C12,1 C
07:12
30,2 C
17:17
1012,6 hPa1009,4 hPa
18:22
1014,5 hPa
07:12
3,2 km/h
SO
21,1 km/h
16:57  
---
76 %42 %
17:22
97 %
08:37
39,5 klux79,0 klux
13:07
10:43 Std 
4.
September
20,1 C16,6 C
01:03
25,0 C
14:53
1010,3 hPa1008,9 hPa
14:58
1011,8 hPa
03:28
6,3 km/h
W-SW
25,2 km/h
03:48  
4,0 l/m
3:45 Stunden
88 %69 %
14:53
96 %
07:13
23,8 klux78,2 klux
14:33
1:40 Std 
5.
September
16,8 C13,6 C
23:24
19,9 C
14:23
1015,1 hPa1010,7 hPa
00:03
1022,6 hPa
23:49
18,1 km/h
W-SW
44,0 km/h
18:04  
0,2 l/m
5 Minuten
72 %47 %
18:18
95 %
00:03
31,8 klux93,1 klux
12:23
6:37 Std 
6.
September
15,5 C11,6 C
03:09
20,4 C
16:04
1019,2 hPa1011,9 hPa
23:50
1022,9 hPa
03:09
22,3 km/h
W-SW
53,5 km/h
12:24  
0,2 l/m
41 Minuten
68 %51 %
16:09
83 %
07:24
35,4 klux92,6 klux
13:24
6:20 Std 
7.
September
14,6 C12,1 C
08:00
17,5 C
13:50
1012,2 hPa1008,1 hPa
05:45
1014,4 hPa
20:45
24,6 km/h
W-SW
52,8 km/h
06:10  
4,4 l/m
4:25 Stunden
77 %57 %
14:10
97 %
06:45
22,2 klux90,5 klux
12:55
1:40 Std 
8.
September
13,2 C11,3 C
08:31
15,5 C
14:01
1011,7 hPa1010,5 hPa
06:16
1013,3 hPa
00:21
23,1 km/h
W
40,9 km/h
14:21  
2,1 l/m
6:45 Stunden
84 %71 %
00:01
94 %
06:41
14,1 klux52,8 klux
13:11
--- 
9.
September
16,9 C13,6 C
02:02
20,5 C
14:02
1012,8 hPa1012,2 hPa
01:32
1013,8 hPa
23:48
10,1 km/h
W-SW
31,8 km/h
14:07  
0,3 l/m
1:24 Stunden
88 %72 %
14:32
95 %
07:52
19,4 klux67,9 klux
13:22
1:05 Std 
10.
September
21,0 C15,6 C
04:13
27,2 C
15:58
1011,5 hPa1008,7 hPa
17:43
1014,1 hPa
04:13
5,6 km/h
W-SW
24,0 km/h
14:03  
---
15 Minuten
83 %61 %
14:08
99 %
07:23
35,8 klux93,0 klux
12:18
6:05 Std 
11.
September
18,8 C13,0 C
23:45
23,4 C
12:54
1010,9 hPa1008,9 hPa
19:19
1013,4 hPa
23:45
6,2 km/h
W-SW
34,6 km/h
14:19  
23,3 l/m
4:45 Stunden
86 %69 %
12:34
98 %
19:34
13,4 klux60,6 klux
12:19
1:15 Std 
12.
September
16,6 C11,9 C
07:30
23,5 C
17:20
1013,6 hPa1011,1 hPa
17:20
1015,6 hPa
07:30
18,2 km/h
W-SW
42,6 km/h
16:30  
---
83 %57 %
17:20
98 %
00:00
34,2 klux87,9 klux
12:20
6:15 Std 
13.
September
17,0 C14,0 C
23:57
20,4 C
17:16
1013,5 hPa1012,5 hPa
17:16
1015,3 hPa
23:57
15,4 km/h
W-SW
35,6 km/h
16:26  
---
25 Minuten
83 %67 %
17:21
93 %
09:01
16,8 klux71,5 klux
16:06
1:00 Std 
14.
September
13,7 C9,0 C
23:43
19,4 C
17:42
1018,2 hPa1015,3 hPa
00:02
1021,1 hPa
23:43
14,2 km/h
W
32,4 km/h
13:57  
---
72 %47 %
16:47
87 %
23:48
37,3 klux74,4 klux
13:52
8:35 Std 
15.
September
12,8 C7,4 C
05:08
21,0 C
17:48
1021,5 hPa1019,9 hPa
18:38
1022,6 hPa
10:38
3,9 km/h
W
15,5 km/h
13:03  
---
78 %48 %
17:53
95 %
07:33
37,4 klux86,2 klux
12:58
8:15 Std 
16.
September
12,9 C4,7 C
06:59
21,3 C
14:04
1018,4 hPa1014,1 hPa
19:39
1022,4 hPa
02:13
5,5 km/h
SO
26,7 km/h
14:04  
0,5 l/m
25 Minuten
78 %45 %
14:04
97 %
09:04
31,4 klux69,8 klux
12:34
6:25 Std 
17.
September
16,8 C14,1 C
23:51
19,6 C
18:15
1011,8 hPa1008,0 hPa
23:26
1014,3 hPa
00:00
8,4 km/h
W-SW
21,3 km/h
11:55  
---
10 Minuten
82 %72 %
12:40
91 %
08:55
12,9 klux54,1 klux
12:40
25 Min 
18.
September
12,1 C9,8 C
22:21
14,0 C
00:01
1006,5 hPa1004,2 hPa
06:36
1008,6 hPa
22:21
10,4 km/h
W-SW
47,6 km/h
14:31  
1,7 l/m
3:40 Stunden
84 %74 %
17:36
94 %
13:21
14,8 klux82,7 klux
13:26
20 Min 
19.
September
11,8 C7,8 C
23:58
18,3 C
16:57
1013,1 hPa1008,5 hPa
02:22
1021,3 hPa
23:58
5,6 km/h
SO
19,1 km/h
11:02  
---
10 Minuten
80 %59 %
17:02
92 %
23:48
20,8 klux89,5 klux
13:47
3:00 Std 
20.
September
11,5 C4,9 C
07:18
19,0 C
18:18
1023,9 hPa1021,3 hPa
00:03
1025,7 hPa
08:33
5,1 km/h
W-SW
28,3 km/h
13:18  
---
82 %60 %
14:03
98 %
09:28
31,6 klux83,4 klux
12:08
6:15 Std 
21.
September
12,7 C6,5 C
05:34
21,2 C
17:19
1021,6 hPa1018,6 hPa
17:19
1024,5 hPa
02:44
3,6 km/h
W-NW
16,1 km/h
13:29  
---
80 %55 %
13:54
97 %
07:39
30,1 klux72,6 klux
13:44
5:05 Std 
22.
September
14,0 C9,3 C
23:41
18,8 C
15:15
1020,2 hPa1018,5 hPa
05:00
1022,1 hPa
23:41
8,8 km/h
W
32,2 km/h
11:25  
---
76 %51 %
15:25
89 %
23:51
24,3 klux79,2 klux
13:30
2:50 Std 
23.
September
12,6 C8,2 C
01:46
20,6 C
17:41
1020,1 hPa1017,7 hPa
17:41
1022,3 hPa
01:46
3,0 km/h
SO
12,8 km/h
13:26  
---
80 %46 %
17:21
96 %
08:31
27,2 klux82,6 klux
12:16
5:10 Std 
24.
September
12,8 C4,7 C
07:02
22,9 C
17:17
1017,6 hPa1015,3 hPa
17:17
1019,6 hPa
07:07
6,5 km/h
SO
25,1 km/h
13:27  
---
78 %46 %
17:27
96 %
09:07
34,9 klux65,6 klux
13:48
10:15 Std 
25.
September
14,6 C6,9 C
07:28
24,7 C
17:43
1019,7 hPa1017,8 hPa
00:03
1022,7 hPa
23:58
2,6 km/h
SO
18,2 km/h
14:38  
---
80 %52 %
16:58
97 %
09:08
35,0 klux61,0 klux
13:18
10:10 Std 
26.
September
16,3 C9,3 C
07:18
25,2 C
15:43
1024,1 hPa1022,8 hPa
00:03
1026,7 hPa
23:54
3,1 km/h
SW
18,8 km/h
14:03  
---
80 %51 %
15:48
97 %
09:03
31,4 klux60,5 klux
14:18
7:20 Std 
27.
September
17,4 C11,9 C
07:44
26,0 C
17:44
1028,6 hPa1026,7 hPa
00:04
1030,9 hPa
23:55
2,8 km/h
SO
13,3 km/h
13:44  
---
81 %49 %
17:04
97 %
09:09
33,5 klux61,5 klux
13:14
8:45 Std 
28.
September
16,5 C10,3 C
05:55
24,5 C
17:20
1029,9 hPa1027,5 hPa
17:20
1031,3 hPa
05:55
4,1 km/h
SO
15,9 km/h
13:05  
---
84 %61 %
17:20
99 %
09:25
30,2 klux60,2 klux
13:30
8:05 Std 
29.
September
15,8 C9,2 C
08:20
24,8 C
17:45
1028,7 hPa1026,5 hPa
17:45
1030,4 hPa
08:20
3,7 km/h
SO
20,3 km/h
13:10  
---
81 %52 %
17:10
98 %
09:30
33,7 klux61,4 klux
13:10
9:20 Std 
30.
September
16,4 C9,1 C
07:41
26,7 C
18:01
1027,2 hPa1024,2 hPa
18:01
1029,1 hPa
09:31
6,7 km/h
SO
30,6 km/h
12:31  
---
72 %37 %
17:21
95 %
08:41
35,5 klux59,9 klux
13:16
10:05 Std 



September
2011

Temperatur

  

Luftdruck

  

Wind

  

Regen

  

Luftfeuchte

  

Helligkeit

Sonnen-
schein

Min

Max

Min

Max

Max

Max

Min

Max

Max

Max

15,4 C

4,7 C

06:59 Uhr
16.09.2011

30,2 C

17:17 Uhr
03.09.2011

1017,5 hPa

1004,2 hPa

06:36 Uhr
18.09.2011

1031,3 hPa

05:55 Uhr
28.09.2011

8,5 km/h

W-SW

53,5 km/h

12:24 Uhr
06.09.2011

23,3 l/m

4:45 Stunden
11.09.2011

80 %

37 %

17:21 Uhr
30.09.2011

99 %

07:23 Uhr
10.09.2011

28,5 klux

93,1 klux

12:23 Uhr
05.09.2011

10:43 Std

am
03.09.2011

Gesamt

Gesamt

36,5 l/m

14 Tage
27:25 h

168:56 Std


Wetter-Diagramme September 2011     Heinzenberg / Taunus   
TemperaturLuftfeuchte
SolarstrahlungLuftdruck
HelligkeitSonnenschein
RegenmengeRegendauer
Wind-GeschwindigkeitWind-Richtung